Weather History for KHMN - April, 2013

Change the Weather History Date:

Friday, April 5, 2013

  Actual Average Record
Temperature  
Mean Temperature 64 °F -  
Max Temperature 83 °F 70 °F 83 °F (2013)
Min Temperature 47 °F 41 °F 30 °F (1999)
Growing Degree Days 14 (Base 50)    
Moisture  
Dew Point 14 °F    
Average Humidity 14    
Maximum Humidity 23    
Minimum Humidity 5    
Precipitation  
Precipitation 0.00 in - - ()
Sea Level Pressure  
Sea Level Pressure 29.86 in    
Wind  
Wind Speed 7 mph (South)    
Max Wind Speed 17 mph    
Max Gust Speed 24 mph    
Visibility 10 miles    
Events      
Averages and records for this station are not official NWS values.
T = Trace of Precipitation, MM = Missing Value Source: NWS Daily Summary

Daily Weather History Graph

Daily Weather History Graph

Search for Another Location

Airport or City:

Trip Planner

Search our weather history database for the weather conditions in past years. The results will help you decide how hot, cold, wet, or windy it might be!

Date:

Astronomy

Apr. 05, 2013 Rise Set
Actual Time 6:46 AM MDT 7:27 PM MDT
Civil Twilight 6:21 AM MDT 7:52 PM MDT
Nautical Twilight 5:52 AM MDT 8:22 PM MDT
Astronomical Twilight 5:22 AM MDT 8:52 PM MDT
Moon 3:41 AM MDT (4/5) 3:08 PM MDT (4/5)
Length of Visible Light 13h 30m
Length of Day
12h 40m
Waning Crescent, 23% of the Moon is Illuminated
Apr 5
Waning Crescent
Apr 10
New
Apr 18
First Quarter
Apr 25
Full
May 2
Last Quarter

Hourly Weather History & Observations

Time (MDT) Temp. Dew Point Humidity Pressure Visibility Wind Dir Wind Speed Gust Speed Precip Events Conditions
12:58 AM 54.7 °F 12.2 °F 19% 30.10 in 10.0 mi South 4.6 mph - N/A   Clear
1:58 AM 53.4 °F 11.1 °F 19% 30.09 in 10.0 mi South 2.3 mph - N/A   Clear
2:58 AM 52.5 °F 10.4 °F 19% 29.93 in 10.0 mi SE 4.6 mph - N/A   Clear
3:58 AM 53.6 °F 13.6 °F 21% 29.91 in 10.0 mi SSE 5.8 mph - N/A   Clear
4:58 AM 51.8 °F 13.1 °F 21% 29.93 in 10.0 mi South 2.3 mph - N/A   Clear
5:58 AM 47.1 °F 10.9 °F 23% 29.95 in 10.0 mi North 3.5 mph - N/A   Clear
6:58 AM 47.3 °F 11.1 °F 23% 29.96 in 10.0 mi NNW 4.6 mph - N/A   Clear
7:58 AM 54.5 °F 13.3 °F 20% 29.96 in 10.0 mi NNE 1.2 mph - N/A   Clear
8:58 AM 61.7 °F 19.2 °F 19% 29.96 in 10.0 mi SSW 2.3 mph - N/A   Clear
9:58 AM 70.2 °F 23.9 °F 18% 29.94 in 10.0 mi South 10.4 mph - N/A   Partly Cloudy
10:58 AM 71.4 °F 24.3 °F 17% 29.93 in 10.0 mi South 12.7 mph - N/A   Partly Cloudy
11:58 AM 74.3 °F 23.9 °F 15% 29.90 in 10.0 mi SSE 13.8 mph 20.7 mph N/A   Partly Cloudy
12:58 PM 76.8 °F 21.0 °F 12% 29.87 in 10.0 mi SSW 17.3 mph - N/A   Scattered Clouds
1:58 PM 78.8 °F 20.5 °F 11% 29.82 in 10.0 mi SSW 10.4 mph - N/A   Partly Cloudy
2:58 PM 79.3 °F 17.8 °F 10% 29.78 in 10.0 mi South 12.7 mph - N/A   Partly Cloudy
3:58 PM 82.0 °F 15.1 °F 8% 29.73 in 10.0 mi South 11.5 mph - N/A   Partly Cloudy
4:34 PM 82.4 °F 10.4 °F 7% 29.89 in 10.0 mi WSW 17.3 mph 21.9 mph N/A   Clear
4:58 PM 81.7 °F 8.8 °F 6% 29.73 in 10.0 mi WSW 17.3 mph 24.2 mph N/A   Clear
5:58 PM 80.2 °F 3.7 °F 5% 29.72 in 10.0 mi SW 12.7 mph - N/A   Clear
6:58 PM 79.7 °F 7.3 °F 6% 29.70 in 10.0 mi SSW 12.7 mph - N/A   Clear
7:58 PM 70.3 °F 9.3 °F 9% 29.71 in 10.0 mi South 8.1 mph - N/A   Clear
8:58 PM 66.7 °F 9.7 °F 11% 29.73 in 10.0 mi SSW 5.8 mph - N/A   Clear
9:58 PM 63.0 °F 10.9 °F 13% 29.75 in 10.0 mi SSE 5.8 mph - N/A   Clear
10:58 PM 60.4 °F 10.6 °F 14% 29.75 in 10.0 mi South 8.1 mph - N/A   Clear
11:58 PM 60.6 °F 13.8 °F 16% 29.76 in 10.0 mi SW 6.9 mph - N/A   Clear